Date,TemperatureHighF,TemperatureAvgF,TemperatureLowF,DewpointHighF,DewpointAvgF,DewpointLowF,HumidityHigh,HumidityAvg,HumidityLow,PressureMaxIn,PressureMinIn,WindSpeedMaxMPH,WindSpeedAvgMPH,GustSpeedMaxMPH,PrecipitationSumIn
2013-5-12,75,61,50,57,23,-13,64,26,3,29.81,29.58,19,7,28,0.03
2013-5-13,64,53,42,38,33,30,65,48,30,30.01,29.81,24,8,36,0.00
2013-5-14,65,51,40,40,34,29,65,53,36,30.04,29.96,19,6,30,0.00
2013-5-15,67,53,42,47,8,-50,57,12,1,30.05,29.67,30,11,39,0.01
2013-5-16,83,63,48,55,30,0,58,28,28,29.76,29.65,17,6,29,0.00
2013-5-17,72,62,52,49,33,-42,59,37,1,30.20,29.76,18,7,24,0.00
2013-5-18,78,60,47,53,22,-42,58,23,1,30.28,30.20,23,6,24,0.00
2013-5-19,65,55,49,38,1,-40,37,2,1,30.33,30.19,25,6,25,0.08
2013-5-20,86,66,56,68,16,-33,56,14,1,30.19,29.92,23,7,23,0.01
2013-5-21,86,64,54,66,12,-5,55,10,7,29.95,29.83,23,7,23,0.00
2013-5-22,72,57,52,8,0,-34,10,0,2,29.96,29.87,22,10,22,0.00
2013-5-23,69,62,59,0,0,0,0,0,100,29.93,29.83,29,13,29,0.05
2013-5-24,67,60,52,0,0,0,0,0,100,29.83,29.66,24,9,24,0.42
2013-5-25,55,50,47,0,0,0,0,0,100,29.76,29.68,24,8,24,0.07
2013-5-26,67,57,48,46,35,-48,58,46,2,30.11,29.82,26,8,26,0.00
2013-5-27,80,61,44,48,28,-34,56,28,2,30.15,30.07,27,7,27,0.00
2013-5-28,69,58,46,52,5,-45,55,8,1,30.22,30.15,18,5,18,0.00
2013-5-29,80,60,55,59,4,-32,49,3,4,30.17,30.00,30,10,30,0.28
2013-5-30,90,71,58,69,19,-33,54,15,3,30.09,30.01,19,5,19,0.05
2013-5-31,94,73,57,72,18,-35,56,14,1,30.08,29.97,16,5,20,0.00
2013-6-1,86,68,58,68,14,-21,55,11,4,29.99,29.91,22,9,22,0.00
2013-6-2,80,67,61,56,5,-20,44,3,3,29.93,29.82,32,13,32,0.00
2013-6-3,64,36,3,0,0,0,0,0,100,29.84,29.77,24,7,24,0.30
2013-6-4,46,-16,-59,0,0,0,0,0,100,30.04,29.79,21,6,21,0.00
2013-6-5,-59,-59,-59,0,0,0,0,0,100,30.17,30.04,23,7,23,0.00
2013-6-6,-18,-53,-59,0,0,0,0,0,100,30.17,30.06,17,5,17,0.00
2013-6-7,73,-30,-59,0,0,0,0,0,100,30.06,29.70,23,7,23,3.10
2013-6-8,78,30,-59,0,0,0,0,0,100,29.99,29.50,34,10,34,0.25
2013-6-9,22,-24,-59,0,0,0,0,0,100,30.15,29.99,22,6,22,0.00
2013-6-10,-18,-56,-59,0,0,0,0,0,100,30.16,29.94,20,4,21,0.81
2013-6-11,77,23,-36,0,0,0,0,0,100,29.94,29.53,23,7,23,1.09
2013-6-12,9,-30,-59,0,0,0,50,13,50,29.78,29.56,26,7,26,0.01
2013-6-13,-59,-59,-59,0,0,0,50,50,50,29.79,29.53,26,6,26,0.33
2013-6-14,-1,-36,-59,0,-39,-60,50,50,50,29.75,29.51,31,10,31,0.67
2013-6-15,64,-17,-50,0,-22,-60,50,18,50,29.93,29.74,18,5,18,0.00
2013-6-16,63,-30,-59,0,0,0,0,0,100,29.94,29.72,23,6,23,0.00
2013-6-17,-14,-48,-59,0,0,0,0,0,100,29.90,29.77,26,5,26,0.00
2013-6-18,-2,-19,-59,0,0,0,0,0,100,29.91,29.83,19,5,19,0.21
2013-6-19,-1,-29,-59,0,0,0,0,0,100,30.13,29.83,21,8,21,0.01
2013-6-20,-27,-48,-59,0,0,0,0,0,100,30.26,30.13,22,6,22,0.00
2013-6-21,-31,-53,-59,0,0,0,0,0,100,30.27,30.21,23,8,23,0.00
2013-6-22,-3,-56,-59,0,0,0,0,0,100,30.23,30.14,25,7,25,0.00
2013-6-23,24,-16,-59,0,0,0,0,0,100,30.17,30.04,24,8,24,0.00
2013-6-24,40,-19,-59,0,0,0,0,0,100,30.04,29.88,22,6,24,0.00
2013-6-25,-42,-57,-59,0,0,0,0,0,100,29.93,29.74,21,5,21,0.10
2013-6-26,19,-27,-59,0,0,0,0,0,100,29.81,29.72,18,3,18,0.01
2013-6-27,52,13,-49,0,0,0,0,0,100,29.82,29.68,16,3,16,0.00
2013-6-28,114,85,53,0,0,0,0,0,100,29.69,29.50,28,12,28,0.36
2013-6-29,116,80,29,0,0,0,0,0,100,29.73,29.49,26,11,26,0.14
2013-6-30,100,73,3,5,-7,-56,4,1,4,29.93,29.72,19,8,21,0.03
2013-7-1,102,88,71,12,4,-8,4,4,4,30.08,29.93,24,9,24,0.14
2013-7-2,97,79,48,9,-2,-24,4,4,4,30.19,30.08,22,8,22,0.03
2013-7-3,95,52,-8,8,-21,-60,4,4,4,30.22,30.16,20,8,21,0.00
2013-7-4,80,34,-10,-2,-33,-60,4,4,4,30.21,30.12,17,6,20,0.00
2013-7-5,30,12,-13,-37,-48,-60,4,4,4,30.17,30.08,22,6,22,0.00
2013-7-20,-29,-36,-43,0,0,0,0,0,100,29.79,29.66,21,6,21,0.00
2013-7-21,-6,-28,-42,0,0,0,0,0,100,29.96,29.78,13,3,13,0.44
2013-7-22,72,-2,-37,0,0,0,0,0,100,29.98,29.84,18,4,18,0.00
2013-7-23,101,63,20,0,0,0,0,0,100,29.84,29.52,28,9,28,0.10
2013-7-24,76,13,-27,0,0,0,0,0,100,29.86,29.55,15,2,15,0.06
2013-7-25,0,-25,-40,0,0,0,0,0,100,30.03,29.86,25,11,25,0.57
2013-7-26,70,38,0,0,0,0,0,0,100,30.01,29.89,24,7,24,0.33
2013-7-27,75,32,-11,0,0,0,0,0,100,30.04,29.97,20,6,20,0.02
2013-7-28,72,50,30,0,0,0,0,0,100,29.97,29.92,21,4,21,0.02